Weather History for KTRM - December, 2012

Change the Weather History Date:

Thursday, December 20, 2012

  Actual Average Record
Temperature  
Mean Temperature 42 °F 52 °F  
Max Temperature 61 °F 69 °F 84 °F (1972)
Min Temperature 22 °F 36 °F 18 °F (1992)
Degree Days  
Heating Degree Days 23 13  
Month to date heating degree days 167 238  
Since 1 July heating degree days 264 405  
Cooling Degree Days 0 0  
Month to date cooling degree days 6 0  
Year to date cooling degree days 4282 3686  
Moisture  
Dew Point 19 °F    
Average Humidity 45    
Maximum Humidity 75    
Minimum Humidity 15    
Precipitation  
Precipitation 0.00 in 0.01 in 0.12 in (1952)
Month to date precipitation 0.14 0.20  
Year to date precipitation 2.54 3.05  
Since 1 July precipitation 2.18 1.23  
Snow  
Snow 0.00 in - - ()
Month to date snowfall 0.0  
Year to date snowfall 0.0  
Since 1 July snowfall 0.0  
Snow Depth 0.00 in    
Sea Level Pressure  
Sea Level Pressure 30.27 in    
Wind  
Wind Speed 3 mph (NNW)    
Max Wind Speed 6 mph    
Max Gust Speed 8 mph    
Visibility 10 miles    
Events      
T = Trace of Precipitation, MM = Missing Value Source: NWS Daily Summary

Daily Weather History Graph

Daily Weather History Graph

Search for Another Location

Airport or City:

Trip Planner

Search our weather history database for the weather conditions in past years. The results will help you decide how hot, cold, wet, or windy it might be!

Date:

Astronomy

Dec. 20, 2012 Rise Set
Actual Time 6:44 AM PST 4:40 PM PST
Civil Twilight 6:17 AM PST 5:07 PM PST
Nautical Twilight 5:46 AM PST 5:39 PM PST
Astronomical Twilight 5:15 AM PST 6:09 PM PST
Moon 11:46 AM PST (12/20) No Moon Set
Length of Visible Light 10h 50m
Length of Day
9h 55m
First Quarter, 56% of the Moon is Illuminated
Dec 20
First Quarter
Dec 28
Full
Jan 4
Last Quarter
Jan 11
New
Jan 18
First Quarter

Hourly Weather History & Observations

Time (PST) Temp. Windchill Dew Point Humidity Pressure Visibility Wind Dir Wind Speed Gust Speed Precip Events Conditions
12:52 AM 30.0 °F - 19.9 °F 66% 30.35 in 10.0 mi Calm Calm - N/A   Clear
1:52 AM 27.0 °F 23.0 °F 18.0 °F 69% 30.36 in 10.0 mi NNE 3.5 mph - N/A   Clear
2:52 AM 30.0 °F 26.5 °F 19.0 °F 64% 30.35 in 10.0 mi NNW 3.5 mph - N/A   Clear
3:52 AM 27.0 °F 21.6 °F 19.9 °F 75% 30.35 in 10.0 mi WNW 4.6 mph - N/A   Clear
4:52 AM 28.0 °F 24.2 °F 19.9 °F 72% 30.35 in 10.0 mi NNW 3.5 mph - N/A   Clear
5:52 AM 24.1 °F 19.7 °F 18.0 °F 77% 30.35 in - North 3.5 mph - N/A   Clear
6:52 AM 28.9 °F 23.9 °F 19.9 °F 69% 30.35 in 10.0 mi NNW 4.6 mph - N/A   Clear
7:52 AM 37.0 °F 33.3 °F 19.0 °F 48% 30.37 in 10.0 mi North 4.6 mph - N/A   Clear
8:52 AM 45.0 °F 42.6 °F 19.0 °F 36% 30.38 in 10.0 mi NNW 4.6 mph - N/A   Clear
9:52 AM 52.0 °F - 19.0 °F 27% 30.36 in 10.0 mi NW 5.8 mph - N/A   Clear
10:52 AM 55.9 °F - 12.9 °F 18% 30.33 in 10.0 mi Variable 3.5 mph - N/A   Clear
11:52 AM 59.0 °F - 12.9 °F 16% 30.29 in 10.0 mi Variable 3.5 mph - N/A   Clear
12:52 PM 60.1 °F - 14.0 °F 16% 30.26 in 10.0 mi South 4.6 mph - N/A   Clear
1:52 PM 61.0 °F - 12.9 °F 15% 30.22 in 10.0 mi Calm Calm - N/A   Clear
2:52 PM 60.1 °F - 14.0 °F 16% 30.21 in 10.0 mi Calm Calm - N/A   Clear
3:52 PM 59.0 °F - 15.1 °F 18% 30.19 in 10.0 mi West 3.5 mph - N/A   Clear
4:52 PM 48.9 °F - 21.9 °F 35% 30.18 in 7.0 mi Calm Calm - N/A   Clear
5:52 PM 43.0 °F - 23.0 °F 45% 30.18 in 10.0 mi Calm Calm - N/A   Clear
6:52 PM 37.9 °F - 24.1 °F 57% 30.19 in 10.0 mi Calm Calm - N/A   Clear
7:52 PM 36.0 °F - 24.1 °F 62% 30.19 in 10.0 mi Calm Calm - N/A   Clear
8:52 PM 37.9 °F 35.5 °F 24.1 °F 57% 30.20 in 10.0 mi North 3.5 mph - N/A   Clear
9:52 PM 34.0 °F 31.0 °F 23.0 °F 64% 30.21 in 10.0 mi North 3.5 mph - N/A   Clear
10:52 PM 37.0 °F 33.3 °F 23.0 °F 57% 30.19 in 10.0 mi North 4.6 mph - N/A   Clear
11:52 PM 35.1 °F 31.0 °F 23.0 °F 61% 30.18 in 10.0 mi North 4.6 mph - N/A   Clear